This demonstration page uses our WeatherBlox Daily Observations layout. Learn more.

39.92423, -83.80882

Hourly Observations for April 7, 2019

Temp ( °F °C ) Dew Point ( °F °C ) Humidity (%) Winds ( mph kmh ) Pressure ( in mb ) Visibility ( mi km ) Precip ( " mm )
12:56 am 00:56 Clear 48 8.9 45 7.2 89 89 ESE 6 9 30.14 1021 10 16.0934 0 0
1:56 am 01:56 Clear 46 7.8 43 6.1 89 89 ESE 6 9 30.13 1020 10 16.0934 0 0
2:56 am 02:56 Clear 49 9.4 45 7.2 86 86 Calm 30.11 1020 10 16.0934 0 0
3:56 am 03:56 Clear 51 10.6 45 7.2 80 80 SE 5 7 30.09 1019 10 16.0934 0 0
4:56 am 04:56 Clear 50 10 45 7.2 83 83 SE 7 11 30.07 1018 10 16.0934 0 0
5:56 am 05:56 Clear 52 11.1 46 7.8 80 80 SE 9 15 30.05 1018 10 16.0934 0 0
6:56 am 06:56 Clear 51 10.6 46 7.8 83 83 SE 8 13 30.05 1018 10 16.0934 0 0
7:56 am 07:56 Sunny 52 11.1 47 8.3 83 83 SE 7 11 30.07 1018 10 16.0934 0 0
8:56 am 08:56 Sunny 55 12.8 49 9.4 80 80 SE 7 11 30.06 1018 10 16.0934 0 0
9:56 am 09:56 Sunny 58 14.4 50 10 75 75 SSE 9 15 30.04 1017 10 16.0934 0 0
10:56 am 10:56 Sunny 63 17.2 53 11.7 70 70 SSE 12 19 30.01 1016 10 16.0934 0 0
11:56 am 11:56 Mostly Cloudy 66 18.9 56 13.3 70 70 SSW 9 15 30 1016 10 16.0934 0 0
12:56 pm 12:56 Cloudy 66 18.9 56 13.3 70 70 S 12 19 29.99 1016 10 16.0934 0 0
1:56 pm 13:56 Cloudy 67 19.4 57 13.9 71 71 S 10 17 29.97 1015 10 16.0934 0 0.0254
2:56 pm 14:56 Mostly Cloudy 69 20.6 60 15.6 73 73 SSW 12 19 29.93 1014 10 16.0934 0 0
3:25 pm 15:25 Mostly Cloudy 70 21 61 16 73 73 SSW 9 15 29.88 1012 10 16.0934 0 0
3:56 pm 15:56 Cloudy 69 20.6 61 16.1 76 76 SSW 13 20 29.89 1012 10 16.0934 0 0
4:56 pm 16:56 Cloudy 68 20 59 15 73 73 SW 21 33 29.91 1013 10 16.0934 0 0
5:33 pm 17:33 Cloudy 66 19 61 16 83 83 SSW 16 26 29.88 1012 10 16.0934 0 0
5:56 pm 17:56 Cloudy 67 19.4 60 15.6 79 79 SW 17 28 29.9 1013 10 16.0934 0 0
6:56 pm 18:56 Cloudy with Light Rain 64 17.8 62 16.7 93 93 SW 17 28 29.91 1013 9 14.48406 0 0.0254
7:28 pm 19:28 Cloudy with Light Rain 63 17 63 17 100 100 SW 10 17 29.89 1012 7 11.26538 0.02 0.508
7:56 pm 19:56 Cloudy with Light Rain 63 17.2 62 16.7 97 97 SW 13 20 29.9 1013 10 16.0934 0.02 0.508
8:44 pm 20:44 Cloudy 63 17 63 17 100 100 SSW 9 15 29.86 1011 10 16.0934 0 0.0254
8:56 pm 20:56 Cloudy 62 16.7 62 16.7 100 100 SSW 9 15 29.88 1012 10 16.0934 0 0.0254
9:10 pm 21:10 Cloudy 63 17 63 17 100 100 SSW 9 15 29.86 1011 10 16.0934 0 0
9:19 pm 21:19 Cloudy 63 17 63 17 100 100 SSW 10 17 29.87 1012 10 16.0934 0 0
9:43 pm 21:43 Cloudy 63 17 63 17 100 100 SSW 13 20 29.89 1012 10 16.0934 0 0
9:54 pm 21:54 Cloudy 63 17 63 17 100 100 SSW 14 22 29.89 1012 10 16.0934 0 0
9:56 pm 21:56 Cloudy 63 17.2 62 16.7 97 97 SSW 13 20 29.91 1013 10 16.0934 0 0
10:56 pm 22:56 Cloudy 63 17.2 62 16.7 97 97 SSW 13 20 29.9 1013 10 16.0934 0 0
11:03 pm 23:03 Cloudy 63 17 61 16 94 94 SSW 12 19 29.88 1012 10 16.0934 0 0
11:24 pm 23:24 Partly Cloudy 63 17 61 16 94 94 SSW 13 20 29.87 1012 10 16.0934 0 0
11:56 pm 23:56 Clear 62 16.7 61 16.1 96 96 SSW 10 17 29.9 1012 10 16.0934 0 0

Powered by AerisWeather